Location: Cambridge (historical)
(38.6883°N, 119.0140°W)
Time: 16:13:26
(UTC+00:00)

COSMO-SKYMED 1 - Pass Details

Date: 29 October 2020
Orbit: 621 x 623 km, 97.9° (Epoch: 23 November)

Event Time Altitude Azimuth Distance (km) Brightness Sun altitude
Rises 13:20:38 0° 172° (S) 2,889 6.2 -12.2°
Reaches altitude 10° 13:22:49 10° 175° (S) 1,987 5.3 -11.8°
Maximum altitude 13:27:07 68° 259° (WSW) 672 2.5 -11.0°
Drops below altitude 10° 13:31:28 10° 342° (NNW) 2,001 4.9 -10.1°
Sets 13:33:40 0° 345° (NNW) 2,911 5.8 -9.7°
